Location: ??????
(36.0418°N, 43.6351°E)
Time: 05:04:19
(UTC+00:00)

ATLAS 3B R/B - Pass Details

Date: 07 March 2021
Orbit: 1006 x 1189 km, 63.8° (Epoch: 18 April)

Event Time Altitude Azimuth Distance (km) Brightness Sun altitude
Rises 02:59:54 0° 334° (NNW) 3,885 5.4 -6.4°
Reaches altitude 10° 03:02:44 10° 342° (NNW) 2,954 4.8 -5.9°
Maximum altitude 03:09:19 41° 51° (NE) 1,595 4.2 -4.5°
Drops below altitude 10° 03:16:07 10° 120° (ESE) 3,061 6.4 -3.1°
Sets 03:19:04 0° 127° (SE) 4,039 6.8 -2.6°
